EW8865 Weather Reports


Display with metric or nautical units.
time (UTC)temp
F
wind
direction
speed
MPH
gust
MPH
rain 1hr
in
rain 24hr
in
rain mn
in
humidity
%
barometer
mb
20260505053504 50 49 2.0 8.0 0.00 0.13 0.00 78 1013.8
20260505053003 50 38 3.0 8.0 0.00 0.13 0.00 79 1013.9
20260505052504 50 66 2.0 5.0 0.00 0.13 0.00 80 1013.9
20260505052003 50 70 2.0 3.0 0.00 0.13 0.00 80 1013.8
20260505051504 50 70 1.0 3.0 0.00 0.13 0.00 80 1013.8
20260505051003 50 70 2.0 5.0 0.00 0.13 0.00 80 1013.8
20260505041504 51 66 3.0 3.0 0.00 0.13 0.00 84 1013.8
20260505041004 51 58 3.0 5.0 0.00 0.13 0.00 84 1013.8
20260505040504 51 39 2.0 6.0 0.00 0.13 0.00 84 1013.8
20260505035504 51 39 4.0 7.0 0.00 0.13 0.00 85 1013.7
20260505035003 51 53 2.0 6.0 0.00 0.13 0.00 85 1013.8
20260505034504 51 46 2.0 5.0 0.00 0.13 0.00 85 1013.8
20260505034003 51 18 1.0 3.0 0.00 0.13 0.00 85 1013.8
20260505033503 51 16 2.0 3.0 0.00 0.13 0.00 85 1013.8
20260505033004 51 14 3.0 3.0 0.00 0.13 0.00 86 1013.8
20260505032004 51 72 1.0 3.0 0.00 0.13 0.00 86 1013.8
20260505031504 51 72 1.0 3.0 0.00 0.13 0.00 86 1013.8
20260505031003 51 72 1.0 3.0 0.00 0.13 0.00 86 1013.9
20260505030505 51 73 1.0 2.0 0.00 0.13 0.00 86 1013.9
20260505030004 51 73 2.0 3.0 0.00 0.13 0.00 86 1014.0
20260505025504 51 41 1.0 5.0 0.00 0.13 0.00 86 1013.9
20260505025004 51 38 1.0 3.0 0.00 0.13 0.00 86 1013.9
20260505024503 51 37 2.0 3.0 0.00 0.13 0.00 86 1013.9
20260505024004 51 41 2.0 3.0 0.00 0.13 0.00 86 1013.9
20260505023504 51 42 2.0 3.0 0.00 0.13 0.00 86 1013.9
20260505023004 51 40 1.0 3.0 0.00 0.13 0.00 86 1013.9
20260505022003 51 36 2.0 3.0 0.00 0.13 0.00 86 1014.0
20260505021504 51 35 1.0 3.0 0.00 0.13 0.00 86 1013.9
20260505021004 51 31 2.0 5.0 0.00 0.13 0.00 85 1013.8
20260505020503 51 34 1.0 5.0 0.00 0.13 0.00 85 1013.8
20260505020004 51 50 1.0 3.0 0.00 0.13 0.00 85 1013.8
20260505015503 51 51 2.0 3.0 0.00 0.13 0.00 85 1013.9
20260505015004 51 53 1.0 3.0 0.00 0.13 0.00 84 1013.9
20260505014503 51 57 2.0 3.0 0.00 0.13 0.00 84 1013.9
20260505014004 51 57 1.0 3.0 0.00 0.13 0.00 84 1013.9
20260505013004 51 44 3.0 8.0 0.00 0.13 0.00 84 1014.1
20260505012503 51 55 2.0 3.0 0.00 0.13 0.00 83 1014.2
20260505011504 51 29 1.0 3.0 0.00 0.13 0.00 83 1014.2
20260505010504 52 45 1.0 3.0 0.00 0.13 0.00 84 1014.1
20260505010004 52 42 3.0 5.0 0.00 0.13 0.00 84 1014.1
20260505005503 52 65 2.0 5.0 0.00 0.13 0.00 84 1014.1
20260505005004 52 65 2.0 3.0 0.00 0.13 0.00 84 1014.2
20260505004505 52 68 2.0 5.0 0.00 0.13 0.00 84 1014.2
20260505003503 52 69 1.0 6.0 0.00 0.13 0.00 85 1014.3
20260505003003 52 92 0.0 0.0 0.00 0.13 0.00 85 1014.3
20260505002004 52 92 0.0 0.0 0.00 0.13 0.00 85 1014.3
20260505001503 52 92 0.0 0.0 0.00 0.13 0.00 85 1014.4
20260505001004 52 92 0.0 0.0 0.00 0.13 0.00 85 1014.4
20260505000503 52 92 0.0 0.0 0.00 0.13 0.00 85 1014.5
20260505000004 52 92 0.0 0.0 0.00 0.13 0.00 85 1014.5
20260504235503 52 92 0.0 0.0 0.00 0.13 0.00 85 1014.5
20260504235004 52 92 0.0 0.0 0.00 0.13 0.00 85 1014.6
20260504234504 52 92 0.0 0.0 0.00 0.13 0.00 86 1014.7
20260504234004 52 92 0.0 0.0 0.00 0.13 0.00 85 1014.6
20260504233504 52 92 0.0 0.0 0.00 0.13 0.00 85 1014.6
20260504233003 52 92 0.0 0.0 0.00 0.13 0.00 85 1014.6
20260504232504 52 92 0.0 0.0 0.00 0.13 0.00 85 1014.6
20260504232004 52 92 0.0 3.0 0.00 0.13 0.00 85 1014.7
20260504231503 52 92 0.0 1.0 0.00 0.13 0.00 85 1014.6
20260504230503 52 92 1.0 2.0 0.00 0.13 0.00 84 1014.6
20260504230005 52 92 1.0 3.0 0.00 0.13 0.00 84 1014.6
20260504225504 52 92 1.0 2.0 0.00 0.13 0.13 84 1014.5
20260504225003 52 92 1.0 3.0 0.00 0.13 0.13 84 1014.5
20260504224504 53 92 1.0 3.0 0.00 0.13 0.13 84 1014.4
20260504224004 53 92 3.0 6.0 0.00 0.13 0.13 84 1014.5
20260504223503 53 97 2.0 6.0 0.00 0.13 0.13 84 1014.5
20260504223004 53 98 1.0 3.0 0.00 0.13 0.13 84 1014.6
20260504222504 52 98 1.0 3.0 0.00 0.13 0.13 85 1014.6
20260504222004 52 98 1.0 3.0 0.00 0.13 0.13 84 1014.6
20260504221504 52 98 1.0 2.0 0.00 0.13 0.13 84 1014.5
20260504221003 53 98 0.0 2.0 0.00 0.13 0.13 84 1014.6
20260504220004 53 98 0.0 1.0 0.00 0.13 0.13 84 1014.6
20260504215503 53 98 1.0 2.0 0.00 0.13 0.13 84 1014.6
20260504215004 53 98 2.0 3.0 0.00 0.13 0.13 83 1014.6
20260504214503 53 98 1.0 3.0 0.00 0.13 0.13 83 1014.5
20260504214004 53 98 2.0 3.0 0.00 0.13 0.13 84 1014.5
20260504213503 53 98 1.0 3.0 0.00 0.13 0.13 84 1014.5
20260504213004 53 98 0.0 0.0 0.00 0.13 0.13 84 1014.6
20260504212503 53 98 0.0 0.0 0.00 0.13 0.13 83 1014.6
20260504212004 53 98 0.0 0.0 0.00 0.13 0.13 83 1014.6
20260504211503 53 98 0.0 0.0 0.00 0.13 0.13 83 1014.6
20260504211004 53 98 1.0 1.0 0.00 0.13 0.13 83 1014.6
20260504210504 53 98 0.0 0.0 0.00 0.13 0.13 82 1014.6
20260504210005 53 98 0.0 0.0 0.00 0.13 0.13 82 1014.6
20260504205503 53 98 1.0 2.0 0.00 0.13 0.13 81 1014.6
20260504204503 54 98 1.0 2.0 0.00 0.13 0.13 80 1014.5
20260504204004 54 98 1.0 2.0 0.00 0.13 0.13 80 1014.5
20260504203503 54 98 2.0 3.0 0.00 0.13 0.13 80 1014.5
20260504203003 54 98 1.0 3.0 0.00 0.13 0.13 80 1014.4
20260504202504 55 98 1.0 3.0 0.00 0.13 0.13 79 1014.4
20260504202004 55 98 0.0 0.0 0.00 0.13 0.13 79 1014.4
20260504200503 56 98 1.0 2.0 0.00 0.13 0.13 78 1014.2
20260504200003 56 98 1.0 2.0 0.00 0.13 0.13 77 1014.2
20260504195503 56 98 1.0 3.0 0.00 0.13 0.13 76 1014.0
20260504195004 57 98 0.0 3.0 0.00 0.13 0.13 76 1014.0
20260504194504 57 98 1.0 3.0 0.00 0.13 0.13 76 1014.0
20260504193503 58 98 2.0 3.0 0.00 0.13 0.13 75 1013.9
20260504193005 58 99 2.0 3.0 0.00 0.13 0.13 74 1013.9
20260504192504 58 99 2.0 7.0 0.00 0.13 0.13 73 1013.9
20260504192004 58 106 2.0 3.0 0.00 0.13 0.13 73 1013.8
20260504191503 58 111 1.0 3.0 0.00 0.13 0.13 72 1013.7
20260504191004 59 111 2.0 6.0 0.00 0.13 0.13 72 1013.7
20260504190504 59 112 1.0 2.0 0.00 0.13 0.13 71 1013.7
20260504190004 59 112 2.0 3.0 0.00 0.13 0.13 71 1013.6
20260504185503 59 112 2.0 3.0 0.00 0.13 0.13 70 1013.6
20260504185004 59 113 2.0 6.0 0.00 0.13 0.13 70 1013.6
20260504184503 60 114 3.0 8.0 0.00 0.13 0.13 69 1013.5
20260504183504 60 96 3.0 8.0 0.00 0.13 0.13 69 1013.5
20260504182504 61 98 3.0 9.0 0.00 0.13 0.13 68 1013.3
20260504182004 61 103 6.0 10.0 0.00 0.13 0.13 68 1013.3
20260504181004 62 92 5.0 12.0 0.00 0.13 0.13 67 1013.3
20260504180504 62 98 3.0 8.0 0.00 0.13 0.13 67 1013.2
20260504180003 63 83 5.0 8.0 0.00 0.13 0.13 66 1013.2
20260504175504 63 85 4.0 7.0 0.00 0.14 0.13 65 1013.2
20260504175004 63 96 5.0 9.0 0.00 0.16 0.13 65 1013.2
20260504174503 64 109 6.0 9.0 0.00 0.17 0.13 65 1013.2
20260504174004 64 96 4.0 8.0 0.00 0.20 0.13 65 1013.2
20260504173504 64 111 6.0 10.0 0.00 0.21 0.13 64 1013.2
20260504173004 64 106 2.0 6.0 0.00 0.21 0.13 66 1013.0
20260504172503 64 115 5.0 8.0 0.00 0.21 0.13 66 1013.1
20260504172004 63 118 2.0 7.0 0.00 0.21 0.13 67 1013.1
20260504171504 63 107 3.0 6.0 0.00 0.21 0.13 67 1013.2
20260504170504 63 62 2.0 3.0 0.00 0.21 0.13 66 1013.2
20260504151003 64 4 3.0 8.0 0.00 0.21 0.13 68 1013.5
20260504150503 64 89 3.0 10.0 0.00 0.21 0.13 68 1013.6
20260504140503 64 52 5.0 12.0 0.00 0.21 0.13 71 1013.9
20260504130504 60 94 6.0 12.0 0.00 0.21 0.13 76 1014.1
20260504110504 58 87 2.0 7.0 0.00 0.21 0.13 79 1014.1
20260504100503 59 74 5.0 12.0 0.00 0.21 0.13 79 1013.7
20260504082003 54 103 5.0 12.0 0.00 0.21 0.13 90 1013.3
20260504081504 54 111 5.0 12.0 0.00 0.21 0.13 90 1013.3
20260504081004 54 84 8.0 15.0 0.00 0.21 0.13 90 1013.3
20260504080505 54 88 7.0 14.0 0.00 0.21 0.13 91 1013.3